GW7293 Weather Reports


time (UTC)temp
F
wind
direction
speed
knots
gust
knots
rain 1hr
in
rain 24hr
in
rain mn
in
humidity
%
barometer
mb
20260506214020 58 56 0.9 1.7 0.00 0.71 0.71 93 1012.5
20260506213027 57 79 1.7 1.7 0.00 0.71 0.71 93 1012.4
20260506212019 57 77 0.0 0.9 0.00 0.71 0.71 93 1012.4
20260506211027 58 0.0 0.9 0.00 0.71 0.71 92 1012.6
20260506210019 57 145 0.0 1.7 0.00 0.71 0.71 92 1012.6
20260506205027 58 92 1.7 3.5 0.00 0.71 0.71 91 1012.6
20260506204019 58 69 1.7 1.7 0.00 0.71 0.71 91 1012.5
20260506203027 58 35 0.0 0.9 0.00 0.71 0.71 90 1012.5
20260506202019 59 66 0.0 0.9 0.00 0.71 0.71 89 1012.4
20260506201027 59 51 1.7 3.5 0.00 0.71 0.71 89 1012.2
20260506200019 59 79 0.9 2.6 0.00 0.71 0.71 87 1012.2
20260506195028 60 49 0.9 3.5 0.00 0.71 0.71 87 1012.2
20260506194019 60 52 2.6 4.3 0.00 0.71 0.71 86 1012.0
20260506193027 61 61 3.5 5.2 0.00 0.71 0.71 85 1011.8
20260506192019 61 67 2.6 5.2 0.00 0.71 0.71 85 1011.6
20260506191030 61 56 1.7 3.5 0.00 0.71 0.71 84 1011.5
20260506190019 61 77 3.5 4.3 0.00 0.71 0.71 83 1011.4
20260506185027 62 58 2.6 4.3 0.00 0.71 0.71 82 1011.3
20260506184019 62 68 2.6 4.3 0.00 0.71 0.71 81 1011.3
20260506183027 62 62 4.3 7.8 0.00 0.71 0.71 80 1011.1
20260506182019 63 75 5.2 8.7 0.00 0.71 0.71 80 1011.0
20260506181027 63 50 5.2 7.8 0.00 0.71 0.71 81 1011.2
20260506180039 63 52 4.3 7.0 0.00 0.71 0.71 82 1011.1
20260506175027 62 42 3.5 6.1 0.00 0.71 0.71 83 1011.0
20260506174019 62 58 4.3 7.0 0.00 0.71 0.71 84 1011.0
20260506173027 63 60 5.2 7.0 0.00 0.71 0.71 84 1010.9
20260506172159 63 47 5.2 7.8 0.00 0.71 0.71 84 1011.0
20260506171027 63 24 5.2 7.0 0.00 0.71 0.71 84 1011.1
20260506170019 63 31 2.6 5.2 0.00 0.71 0.71 83 1011.0
20260506165027 63 25 4.3 7.0 0.00 0.71 0.71 82 1011.0
20260506164019 64 55 3.5 4.3 0.00 0.71 0.71 81 1010.8
20260506163047 66 25 5.2 8.7 0.00 0.71 0.71 75 1010.9
20260506162019 66 59 3.5 5.2 0.00 0.71 0.71 70 1010.9
20260506161027 66 111 2.6 4.3 0.00 0.71 0.71 69 1010.9
20260506160039 66 80 4.3 7.8 0.00 0.71 0.71 67 1010.8
20260506155027 67 70 5.2 7.8 0.00 0.71 0.71 72 1010.8
20260506154019 66 58 6.1 10.4 0.00 0.71 0.71 75 1010.9
20260506153047 65 49 7.8 10.4 0.00 0.71 0.71 77 1010.9
20260506152019 64 46 7.8 11.3 0.00 0.71 0.71 78 1010.9
20260506151027 64 54 9.6 12.2 0.00 0.71 0.71 80 1011.1
20260506150018 65 44 8.7 11.3 0.00 0.71 0.71 81 1011.0
20260506145027 65 57 6.1 10.4 0.00 0.71 0.71 82 1011.0
20260506144018 65 68 7.0 10.4 0.00 0.71 0.71 81 1011.0
20260506143026 65 59 8.7 12.2 0.00 0.71 0.71 82 1011.2
20260506142019 65 46 9.6 13.0 0.00 0.71 0.71 84 1011.2
20260506141026 64 52 8.7 13.0 0.00 0.71 0.71 86 1011.2
20260506140019 62 36 7.0 9.6 0.00 0.71 0.71 88 1011.3
20260506135027 63 45 7.8 9.6 0.00 0.71 0.71 88 1011.4
20260506134019 62 61 5.2 7.8 0.00 0.71 0.71 90 1011.4
20260506133127 62 73 5.2 7.8 0.02 0.71 0.71 90 1011.5
20260506132019 61 60 5.2 8.7 0.10 0.71 0.71 91 1011.6
20260506131027 61 83 3.5 7.8 0.18 0.71 0.71 91 1011.7
20260506130019 60 77 7.0 11.3 0.36 0.71 0.71 92 1011.5
20260506125027 61 65 6.1 9.6 0.54 0.71 0.71 92 1011.5
20260506124039 61 93 1.7 3.5 0.60 0.71 0.71 92 1011.7
20260506123027 60 54 2.6 4.3 0.60 0.69 0.69 91 1011.5
20260506122019 60 73 3.5 10.4 0.60 0.61 0.61 91 1011.2
20260506121027 60 82 7.0 10.4 0.52 0.53 0.53 88 1011.3
20260506120039 60 220 1.7 5.2 0.34 0.35 0.35 86 1011.7
20260506115107 60 228 3.5 8.7 0.16 0.17 0.17 83 1011.3
20260506114019 62 306 4.3 7.8 0.10 0.11 0.11 81 1011.0
20260506112543 67 62 4.3 11.3 0.04 0.05 0.05 72 1011.0
20260506111531 69 64 7.8 17.4 0.00 0.01 0.01 65 1010.8
20260506110523 72 67 7.8 14.8 0.00 0.01 0.01 59 1010.8
20260506105532 72 59 6.1 11.3 0.00 0.01 0.01 57 1011.0
20260506105027 71 54 4.3 7.8 0.00 0.01 0.01 60 1011.0
20260506104022 72 73 5.2 11.3 0.00 0.01 0.01 58 1011.3
20260506103032 72 64 5.2 9.6 0.00 0.01 0.01 56 1011.2
20260506102021 72 101 4.3 7.8 0.00 0.01 0.01 57 1011.2
20260506101028 72 81 6.1 10.4 0.00 0.01 0.01 60 1011.4
20260506100019 72 148 1.7 9.6 0.00 0.01 0.01 55 1011.4
20260506095027 70 47 3.5 6.1 0.00 0.01 0.01 63 1011.3
20260506094019 69 26 4.3 9.6 0.00 0.01 0.01 64 1011.4
20260506093027 68 73 1.7 4.3 0.00 0.01 0.01 65 1011.5
20260506092039 68 115 4.3 7.8 0.00 0.01 0.01 66 1011.3
20260506091027 69 48 6.1 13.0 0.00 0.01 0.01 66 1011.3
20260506090059 68 15 3.5 7.8 0.00 0.01 0.01 68 1011.3
20260506085027 68 5 4.3 7.8 0.00 0.01 0.01 67 1011.3
20260506084019 69 50 4.3 9.6 0.00 0.01 0.01 68 1011.2
20260506083027 67 45 2.6 5.2 0.00 0.01 0.01 70 1011.3
20260506082019 67 35 4.3 8.7 0.00 0.01 0.01 69 1011.4
20260506081026 67 50 5.2 8.7 0.00 0.01 0.01 70 1011.4
20260506073046 64 82 3.5 5.2 0.00 0.01 0.01 83 1011.4
20260506072038 63 83 2.6 6.1 0.00 0.01 0.01 86 1011.3
20260506071027 63 64 3.5 6.1 0.00 0.01 0.01 88 1011.3
20260506062039 61 29 1.7 2.6 0.00 0.01 0.01 96 1011.4
20260506061027 60 69 2.6 4.3 0.00 0.01 0.01 96 1011.4
20260506051027 55 168 0.9 1.7 0.00 0.01 0.01 97 1011.0
20260506045027 54 95 0.9 1.7 0.00 0.01 0.01 96 1010.7
20260506044039 55 154 0.9 1.7 0.00 0.01 0.01 97 1010.6
20260506043027 55 80 2.6 3.5 0.00 0.01 0.01 97 1010.6
20260506042019 55 132 0.9 3.5 0.00 0.01 0.01 96 1010.6
20260506041027 55 34 3.5 7.0 0.00 0.01 0.01 96 1010.4
20260506040019 56 48 4.3 7.0 0.00 0.01 0.01 97 1010.3
20260506035027 57 56 2.6 4.3 0.01 0.01 0.01 96 1010.1
20260506034019 57 129 0.9 2.6 0.01 0.01 0.01 97 1010.1
20260506033047 57 154 0.9 1.7 0.01 0.01 0.01 96 1010.0
20260506032040 57 152 0.9 2.6 0.01 0.01 0.01 96 1010.0
20260506031027 58 162 4.3 6.1 0.01 0.01 0.01 97 1009.9
20260506030039 57 183 2.6 4.3 0.01 0.01 0.01 96 1010.0
20260506025027 57 190 3.5 4.3 0.00 0.00 0.00 96 1009.9
20260506024019 56 187 3.5 4.3 0.00 0.00 0.00 96 1009.9
20260506023027 57 201 2.6 3.5 0.00 0.00 0.00 96 1010.0
20260506022019 57 192 2.6 3.5 0.00 0.00 0.00 96 1009.9
20260506021027 56 185 3.5 4.3 0.00 0.00 0.00 97 1009.9
20260506020019 55 183 3.5 3.5 0.00 0.00 0.00 97 1010.1
20260506015027 55 194 1.7 3.5 0.00 0.00 0.00 97 1010.2
20260506014019 55 216 0.9 2.6 0.00 0.00 0.00 96 1010.2
20260506013028 55 192 2.6 3.5 0.00 0.00 0.00 96 1010.3
20260506012019 57 226 1.7 3.5 0.00 0.00 0.00 96 1010.3
20260506011028 56 179 1.7 2.6 0.00 0.00 0.00 96 1010.2
20260506010019 57 255 0.9 1.7 0.00 0.00 0.00 95 1010.3
20260506005026 58 165 0.9 1.7 0.00 0.00 0.00 96 1010.4
20260506004019 57 166 0.9 1.7 0.00 0.00 0.00 95 1010.5
20260506003026 56 114 1.7 2.6 0.00 0.00 0.00 96 1010.6
20260506002018 55 121 0.0 0.9 0.00 0.00 0.00 95 1010.8
20260506001107 56 56 0.9 2.6 0.00 0.00 0.00 95 1010.7
20260506000019 57 28 0.0 1.7 0.00 0.00 0.00 95 1010.9
20260505235027 58 87 1.7 3.5 0.00 0.00 0.00 94 1010.9
20260505234019 58 126 2.6 4.3 0.00 0.00 0.00 95 1010.9
20260505233027 59 83 3.5 5.2 0.00 0.00 0.00 94 1011.0
20260505232019 60 275 1.7 4.3 0.00 0.00 0.00 95 1010.7
20260505231027 60 275 2.6 4.3 0.00 0.00 0.00 95 1010.8
20260505230019 60 278 2.6 5.2 0.00 0.00 0.00 94 1010.7
20260505225027 60 281 4.3 5.2 0.00 0.00 0.00 94 1010.7
20260505224019 60 284 3.5 6.1 0.00 0.00 0.00 94 1010.9
20260505223027 60 282 3.5 6.1 0.00 0.00 0.00 94 1011.0
20260505222019 60 268 3.5 6.1 0.00 0.00 0.00 94 1010.9
20260505221027 60 273 4.3 7.0 0.00 0.00 0.00 93 1011.1
20260505220019 60 259 4.3 7.0 0.00 0.00 0.00 93 1011.0
20260505215028 61 250 4.3 6.1 0.00 0.00 0.00 93 1011.2